Location: ????
(33.1659°N, 35.6604°E)
Time: 16:14:17
(UTC+00:00)

Cosmos 1892 Rocket - Pass Details

Date: 20 September 2019
Orbit: 606 x 634 km, 82.5° (Epoch: 14 October)

Event Time Altitude Azimuth Distance (km) Brightness Sun altitude
Rises 16:53:46 0° 4° (N) 2,914 7.1 -16.7°
Reaches altitude 10° 16:56:11 10° 13° (NNE) 1,998 6.2 -17.2°
Enters shadow 17:00:13 34° 79° (E) 1,017 4.2 -18.0°
